This is the latest recevied weather packets stored in our database for station/object KD9CCP. If no packets are shown the sender has not sent any weather packets the latest 10 day(s).
| Time | Temp. | Humidity | Pressure | Rain* | Wind** | Luminosity | Snow |
|---|---|---|---|---|---|---|---|
| 1778120096 | 3.33° C | 68% | 1015.2 hPa | 0 mm | - | 0 W/m² | - |
| 1778119793 | 3.33° C | 67% | 1015.2 hPa | 0 mm | - | 0 W/m² | - |
| 1778119490 | 3.33° C | 69% | 1015.3 hPa | 0 mm | - | 0 W/m² | - |
| 1778119187 | 3.33° C | 65% | 1015.2 hPa | 0 mm | - | 0 W/m² | - |
| 1778118886 | 3.33° C | 66% | 1015.3 hPa | 0 mm | - | 0 W/m² | - |
| 1778118582 | 3.33° C | 68% | 1015 hPa | 0 mm | - | 0 W/m² | - |
| 1778118279 | 3.33° C | 67% | 1015 hPa | 0 mm | - | 0 W/m² | - |
| 1778117975 | 3.33° C | 65% | 1015 hPa | 0 mm | - | 0 W/m² | - |
| 1778117672 | 3.33° C | 66% | 1015.3 hPa | 0 mm | - | 0 W/m² | - |
| 1778117370 | 3.33° C | 65% | 1015 hPa | 0 mm | - | 0 W/m² | - |
| 1778117066 | 3.33° C | 65% | 1014.9 hPa | 0 mm | - | 0 W/m² | - |
| 1778116763 | 3.33° C | 65% | 1015 hPa | 0 mm | - | 0 W/m² | - |
| 1778116460 | 3.33° C | 65% | 1015 hPa | 0 mm | - | 0 W/m² | - |
| 1778116160 | 3.33° C | 66% | 1015 hPa | 0 mm | - | 0 W/m² | - |
| 1778115855 | 3.33° C | 65% | 1015 hPa | 0 mm | - | 0 W/m² | - |
| 1778115553 | 3.33° C | 70% | 1015 hPa | 0 mm | - | 0 W/m² | - |
| 1778115250 | 3.33° C | 66% | 1015 hPa | 0 mm | - | 0 W/m² | - |
| 1778114946 | 3.33° C | 66% | 1014.9 hPa | 0 mm | - | 0 W/m² | - |
| 1778114643 | 3.89° C | 63% | 1015 hPa | 0 mm | - | 0 W/m² | - |
| 1778114341 | 3.89° C | 64% | 1015 hPa | 0 mm | - | 1 W/m² | - |
| 1778114035 | 3.89° C | 63% | 1015 hPa | 0 mm | - | 0 W/m² | - |
| 1778113731 | 3.89° C | 64% | 1015.2 hPa | 0 mm | - | 1 W/m² | - |
| 1778113427 | 3.89° C | 65% | 1014.9 hPa | 0 mm | - | 2 W/m² | - |
| 1778113125 | 3.89° C | 63% | 1014.8 hPa | 0 mm | - | 1 W/m² | - |
| 1778112821 | 3.89° C | 64% | 1014.8 hPa | 0 mm | - | 4 W/m² | - |
* Rain latest hour (hover to see other rain measurements)
** Current wind speed in m/s (hover to see current wind gust speed)